This is the latest recevied weather packets stored in our database for station/object W4MSI. If no packets are shown the sender has not sent any weather packets the latest 10 day(s).
| Time | Temp. | Humidity | Pressure | Rain* | Wind** | Luminosity | Snow |
|---|---|---|---|---|---|---|---|
| 1777897487 | 13.89° C | 69% | 1012.6 hPa | 0 mm | - | 107 W/m² | - |
| 1777897183 | 13.89° C | 69% | 1012.5 hPa | 0 mm | - | 99 W/m² | - |
| 1777896878 | 13.89° C | 69% | 1012.4 hPa | 0 mm | - | 87 W/m² | - |
| 1777896576 | 13.33° C | 69% | 1012.5 hPa | 0 mm | - | 82 W/m² | - |
| 1777896273 | 13.33° C | 69% | 1012.5 hPa | 0 mm | - | 76 W/m² | - |
| 1777895971 | 13.33° C | 69% | 1012.4 hPa | 0 mm | - | 64 W/m² | - |
| 1777895669 | 13.33° C | 68% | 1012.4 hPa | 0 mm | - | 55 W/m² | - |
| 1777895366 | 13.33° C | 68% | 1012.5 hPa | 0 mm | - | 51 W/m² | - |
| 1777895064 | 13.33° C | 69% | 1012.4 hPa | 0 mm | - | 43 W/m² | - |
| 1777894760 | 13.33° C | 68% | 1012.2 hPa | 0 mm | - | 37 W/m² | - |
| 1777894457 | 13.33° C | 68% | 1012.3 hPa | 0 mm | - | 33 W/m² | - |
| 1777894155 | 12.78° C | 68% | 1012.4 hPa | 0 mm | - | 27 W/m² | - |
| 1777893852 | 12.78° C | 68% | 1012.2 hPa | 0 mm | - | 20 W/m² | - |
| 1777893548 | 12.78° C | 68% | 1012.3 hPa | 0 mm | - | 18 W/m² | - |
| 1777893244 | 12.78° C | 68% | 1012.3 hPa | 0 mm | - | 14 W/m² | - |
| 1777892941 | 12.78° C | 68% | 1012.1 hPa | 0 mm | - | 9 W/m² | - |
| 1777892638 | 12.78° C | 68% | 1012.2 hPa | 0 mm | - | 7 W/m² | - |
| 1777892333 | 12.78° C | 68% | 1012 hPa | 0 mm | - | 4 W/m² | - |
| 1777892029 | 12.78° C | 68% | 1012.1 hPa | 0 mm | - | 2 W/m² | - |
| 1777891727 | 12.78° C | 68% | 1011.9 hPa | 0 mm | - | 2 W/m² | - |
| 1777891423 | 12.78° C | 68% | 1012.2 hPa | 0 mm | - | 1 W/m² | - |
| 1777891119 | 12.78° C | 68% | 1011.9 hPa | 0 mm | - | 0 W/m² | - |
| 1777890814 | 12.78° C | 67% | 1012 hPa | 0 mm | - | 0 W/m² | - |
| 1777890511 | 12.78° C | 67% | 1012.1 hPa | 0 mm | - | 0 W/m² | - |
| 1777890206 | 12.78° C | 67% | 1011.9 hPa | 0 mm | - | 0 W/m² | - |
* Rain latest hour (hover to see other rain measurements)
** Current wind speed in m/s (hover to see current wind gust speed)